Hourly Weather Roundup
Issued by NWS Central Illinois

Home | Current Version | Previous Version | Text Only | Print | Product List | Glossary On
Versions: 1 2 3 4 5 6 7 8 9 10 11 12 13 14 15 16 17 18 19 20 21 22 23 24 25 26 27 28 29 30 31 32 33 34 35 36 37 38 39 40 41 42 43 44 45 46 47 48 49 50
000
NZUS43 KILX 262110
HWRILX

AREA WEATHER ROUNDUP
NATIONAL WEATHER SERVICE, LINCOLN IL
400 PM CDT SUN APR 26 2015


CITY           SKY/WX    TMP DP  RH WIND       PRES   REMARKS
BLOOMINGTON    SUNNY     58  36  43 NE16G25   29.98F
CHAMPAIGN      MOSUNNY   59  38  45 N15G25    29.94F
DECATUR        MOSUNNY   60  39  45 NE17G24   29.95F
EFFINGHAM      SUNNY     59  33  36 N13       29.93F
FLORA          SUNNY     60  36  40 N10G20    29.91S
GALESBURG      SUNNY     58  35  41 NE10G20   30.00F
JACKSONVILLE   SUNNY     62  36  38 N14       29.96F
LACON          MOSUNNY   58  35  42 NE6       29.99F
LAWRENCEVILLE  SUNNY     62  37  39 N10G22    29.89F
LITCHFIELD     SUNNY     59  36  42 NE16      29.94S
$$


CITY           SKY/WX    TMP DP  RH WIND       PRES   REMARKS
LINCOLN        MOSUNNY   58  39  48 N16G23    29.96F
MACOMB         SUNNY     60  35  39 NE13G23   30.01F
MATTOON        MOSUNNY   58  38  47 N18G25    29.92S
MT CARMEL AP   SUNNY     63  32  31 N7        29.88F
OLNEY-NOBLE AP SUNNY     61  36  39 N13       29.90F
PARIS          MOSUNNY   57  38  49 N10G18    29.92F
PEORIA         SUNNY     61  34  36 NE13G20   29.99F
PONTIAC        MOSUNNY   59  33  38 N14G23    29.99F
RANTOUL        SUNNY     58  35  41 NE21      29.95S
ROBINSON       SUNNY     61  35  37 N12       29.90S
SPRINGFIELD    SUNNY     60  38  43 N17       29.96F
TAYLORVILLE    SUNNY     59  34  38 NE16G23   29.95S
$$

...REGIONAL REPORTS...


CITY           SKY/WX    TMP DP  RH WIND       PRES   REMARKS
CHICAGO O`HARE MOSUNNY   55  26  32 NE18G28   30.00F
KANKAKEE       SUNNY     56  31  39 N18G24    29.99S
MOLINE         SUNNY     60  31  33 N3        30.00F
MOUNT VERNON   SUNNY     61  37  41 N5        29.90F
PITTSFIELD     SUNNY     61  33  34 N9G18     29.96F
QUINCY         SUNNY     61  34  36 NE17      29.97F
ROCKFORD       MOSUNNY   60  29  30 NE13G23   30.02F
$$


CITY           SKY/WX    TMP DP  RH WIND       PRES   REMARKS
BURLINGTON     SUNNY     60  34  37 N13       29.99F
CEDAR RAPIDS   SUNNY     59  32  36 NE9       30.01F
DES MOINES     SUNNY     64  28  25 E10       30.02F
KIRKSVILLE     SUNNY     61  39  44 NE12G21   29.98F
OTTUMWA        SUNNY     59  29  31 NE12      30.01F
ST LOUIS       MOSUNNY   63  38  39 N14       29.94S
$$


CITY           SKY/WX    TMP DP  RH WIND       PRES   REMARKS
TERRE HAUTE    SUNNY     59  37  44 NE13G22   29.90F
EVANSVILLE     SUNNY     63  33  32 N15       29.87F
INDIANAPOLIS   MOSUNNY   56  34  43 N15       29.89F
LAFAYETTE      MOSUNNY   56  34  43 N16       29.92F
MADISON        MOSUNNY   59  27  29 N9        30.02F
MILWAUKEE      MOSUNNY   50  30  46 NE14      30.03S
$$




USA.gov is the U.S. government's official web portal to all federal, state and local government web resources and services.